Regional Weather Roundup
Issued by NWS

Home | Current Version | Previous Version | Text Only | Print | Product List | Glossary Off
Versions: 1 2 3 4 5 6 7 8 9 10 11 12 13 14 15 16 17 18 19 20 21 22 23 24 25 26 27 28 29 30 31 32 33 34 35 36 37 38 39 40 41 42 43 44 45 46 47 48 49 50

000
ASUS43 KMKX 270311
RWRWI

WISCONSIN REGIONAL WEATHER ROUNDUP
NATIONAL WEATHER SERVICE MILWAUKEE/SULLIVAN WI
900 PM CST SUN FEB 26 2017

NOTE: "FAIR" INDICATES FEW OR NO CLOUDS BELOW 12,000 FEET WITH NO
SIGNIFICANT WEATHER AND/OR OBSTRUCTIONS TO VISIBILITY.

WIZ001-002-006>008-014>016-023>028-270400-
NORTHWEST WISCONSIN

CITY           SKY/WX    TMP DP  RH WIND       PRES   REMARKS
SUPERIOR ARPT  FAIR      10   4  78 CALM      29.94R
ASHLAND        FAIR      15   3  59 SW3       29.94R
HAYWARD        FAIR      16  10  77 CALM      29.92R
SIREN          FAIR      17   7  65 CALM      29.93S
CUMBERLAND     FAIR      23  10  58 CALM      29.92R
RICE LAKE      FAIR      22  12  64 CALM      29.94R
CHETEK         FAIR      20  10  65 CALM      29.93R
LADYSMITH      FAIR      21   8  57 CALM      29.93R
EAU CLAIRE     FAIR      20  16  84 CALM      29.94R
MENOMONIE      MOCLDY    23  13  66 CALM      29.95R
NEW RICHMOND   CLOUDY    27  18  68 CALM      29.93S
OSCEOLA        FAIR      25  16  69 NE3       29.96S
$$

WIZ003>005-009-010-017-018-270400-
NORTH CENTRAL WISCONSIN

CITY           SKY/WX    TMP DP  RH WIND       PRES   REMARKS
MANITOWISH WTR FAIR      11   6  79 NW3       29.88R
ARBOR VITAE    FAIR      17  11  78 CALM        N/A
WOODRUFF       FAIR      17  11  78 CALM        N/A
RHINELANDER    FAIR      20  12  71 CALM      29.88R
EAGLE RIVER    FAIR      16   6  65 NW6       29.87R WCI   7
LAND O LAKES   FAIR       5   3  90 W3        29.89R
PHILLIPS       FAIR      13   6  74 CALM      29.89R
TOMAHAWK       FAIR      18  11  75 CALM      29.90R
MEDFORD        FAIR      24  14  67 NW5       29.90R WCI  18
MERRILL        NOT AVBL
$$

WIZ029-030-035-036-043>047-270400-
CENTRAL WISCONSIN

CITY           SKY/WX    TMP DP  RH WIND       PRES   REMARKS
WAUSAU         CLOUDY    29  23  78 W6        29.89R WCI  23
MOSINEE        NOT AVBL
MARSHFIELD     FAIR      27  19  72 W8        29.90R WCI  19
STEVENS POINT  FAIR      29  19  67 W7        29.91R WCI  22
WAUPACA        FAIR      32  19  58 W7        29.93R WCI  26
WAUTOMA        FAIR      31  22  69 W8        29.95R WCI  23
WISC RAPIDS    FAIR      30  22  72 W9        29.94R WCI  22
CAMP DOUGLAS   FAIR      30  21  70 W7        29.96R WCI  23
$$

WIZ011>013-019>022-031-037>040-048>050-270400-
NORTHEAST WISCONSIN

CITY           SKY/WX    TMP DP  RH WIND       PRES   REMARKS
ANTIGO         CLOUDY    27  19  73 NW8       29.88R WCI  18
SHAWANO        FAIR      32  19  58 W5        29.91R WCI  28
OCONTO         FAIR      31  20  63 W5        29.90R WCI  26
STURGEON BAY   MOCLDY    32  22  66 SW5       29.91R WCI  27
GREEN BAY      FAIR      34  22  61 W10       29.91R WCI  26
MANITOWOC      FAIR      34  24  67 SW5       29.93R WCI  30
APPLETON       PTCLDY    32  21  64 W8        29.90R WCI  25
CLINTONVILLE   FAIR      30  18  59 W7        29.91R WCI  23
OSHKOSH        FAIR      34  22  61 W7        29.92R WCI  28
$$

WIZ032>034-041-042-053>061-270400-
SOUTHWEST WISCONSIN

CITY           SKY/WX    TMP DP  RH WIND       PRES   REMARKS
LA CROSSE      FAIR      31  23  72 SW8       29.99R WCI  23
SPARTA         FAIR      30  24  78 W5        29.98R WCI  25
VIROQUA        FAIR      28  23  83 W5        29.96R WCI  23
BOSCOBEL       FAIR      31  24  75 SW5       30.01R WCI  26
PRAIRIE DU CHI FAIR      31  24  76 W5        30.01R WCI  26
PLATTEVILLE    FAIR      30  25  79 W5        29.99R WCI  25
$$

WIZ056-057-062-063-064-067-068-270400-
SOUTH CENTRAL WISCONSIN

CITY           SKY/WX    TMP DP  RH WIND       PRES   REMARKS
REEDSBURG      FAIR      31  24  74 W6        29.96R WCI  25
BARABOO/DELLS  FAIR      32  22  67 W7        29.96R WCI  26
LONE ROCK      FAIR      33  23  66 W5        29.99R WCI  29
MINERAL POINT  FAIR      32  28  86 W5        29.98R WCI  27
MADISON        FAIR      34  23  64 VRB5      29.97R WCI  30
MIDDLETON      FAIR      33  24  71 W6        29.97R WCI  27
WATERTOWN      FAIR      33  25  72 W7        29.96R WCI  27
MONROE         FAIR      34  25  69 W8        29.98R WCI  27
JANESVILLE     CLEAR     36  25  64 SW6       29.98R WCI  31
$$

WIZ051-052-058>065-066-070>072-270400-
SOUTHEAST WISCONSIN

CITY           SKY/WX    TMP DP  RH WIND       PRES   REMARKS
MILWAUKEE      FAIR      36  23  59 SW7       29.97R WCI  30
WAUKESHA       FAIR      32  23  69 SW7       29.97R WCI  26
MILWAUKEE/TIMM CLEAR     36  21  55 SW6       29.97R WCI  31
RACINE         MOCLDY    37  25  61 SW9       29.99R WCI  30
KENOSHA        FAIR      37  27  67 SW8       29.99R WCI  31
FOND DU LAC    FAIR      33  22  63 W5        29.94R WCI  29
SHEBOYGAN      FAIR      32  24  72 SW8       29.93R WCI  25
WEST BEND      FAIR      34  23  64 W6        29.95R WCI  29
JUNEAU         FAIR      32  24  73 SW12      29.96R WCI  23
$$

LSZ147-162-270400-
LAKE SUPERIOR

STATION/POSITION TIME  TEMP    WIND        PRES    WAVE
                       AIR SEA DIR/SP/G            HT/PER
                 (UTC) (F)     (DEG/KT/KT) (MB)    (FT/S)
DEVILS ISLAND    0300   25     270/ 15/ 18 1014.5R
PORT WING        0240   19     200/  6/  8 1013.9R
SAXON HARBOR     0140   18     210/  4/  5 1012.9R
$$

LMZ867-665-643>646-270400-
LAKE MICHIGAN

STATION/POSITION TIME  TEMP    WIND        PRES    WAVE
                       AIR SEA DIR/SP/G            HT/PER
                 (UTC) (F)     (DEG/KT/KT) (MB)    (FT/S)
CHAMBERS ISLAND  0240   33     300/  2/  6 1011.9R
NORTHPORT PIER   0300   31     320/ 13/ 21 1012.9
SISTER BAY       0235   31     360/ 14/ 16   N/A
KEWAUNEE LAKESHO 0242   36     320/  1/  4 1012.4R
SHEBOYGAN LAKESH 0300   36     220/  9/ 10 1014.3R
PORT WASHINGTON  0230   35     250/  3/  5 1014.9R
MILWAUKEE LAKESH 0250   39     200/  7/  8   N/A
KENOSHA   LAKESH 0300   40     230/  4/  7 1015.6
$$

TC  - TEMPERATURE IN CELSIUS
VSB - VISIBILITY IN STATUTE MILES
WCI - WIND CHILL INDEX
HX  - HEAT INDEX





USA.gov is the U.S. government's official web portal to all federal, state and local government web resources and services.